Orbital Elements at Epoch 2459000.5 (2020-May-31.0) TDB
Reference: JPL 23 (heliocentric ecliptic J2000)
Element | Value | Uncertainty (1-sigma) | Units |
e | .1292980247473671 | 5.2404e-08 | |
a | 3.221391617668998 | 1.8317e-08 | au |
q | 2.804872044566671 | 1.6762e-07 | au |
i | 1.906803458087668 | 4.1781e-06 | deg |
node | 68.68739335802286 | 0.00016231 | deg |
peri | 291.8986511481713 | 0.0001632 | deg |
M | 347.5109099971921 | 1.5091e-05 | deg |
tp | 2459073.764233088917 (2020-Aug-12.26423309) | 8.8392e-05 | TDB |
period | 2111.8531379052 5.78 | 1.8012e-05 4.931e-08 | d yr |
n | .1704663991725736 | 1.4539e-09 | deg/d |
Q | 3.637911190771326 | 2.0685e-08 | au |
|
| | Orbit Determination Parameters
Additional Information
|